Location: Seminole
(32.7190°N, 102.6440°W)
Time: 22:02:30
(UTC-05:00)

Meteor 2-10 - Visible Passes

Search period start: 22 October 2014 00:00
Search period end: 01 November 2014 00:00
Orbit: 740 x 868 km, 81.2° (Epoch: 22 October)

Date Brightness Start Highest point End Pass type
(mag) Time Alt. Az. Time Alt. Az. Time Alt. Az.
28 Oct 7.0 07:27:10 10° NE 07:30:25 15° ENE 07:33:38 10° ESE visible
29 Oct 6.4 21:37:32 10° SSW 21:38:18 14° SSW 21:38:18 14° SSW visible
30 Oct 5.0 21:11:34 10° S 21:14:39 36° S 21:14:39 36° S visible
31 Oct 4.1 20:45:50 10° S 20:51:07 59° E 20:51:20 59° E visible
31 Oct 6.9 22:30:47 10° W 22:32:33 13° W 22:32:33 13° W visible
